• en Suisse
  • Liste des pays
  • À 7 jours
  • Température de l'eau
  • Carte satellitaire
  • Carte météo
  • Widgets météo
  • user-avatar
    Se connecter

    Météo par heure à Oslo

    Ce jour, 24 Novembre, Vendredi

    Heure Température Précipitation Vent Pression Humidité
    00:00 +1°C° 0 mm 4 m/s 733 mmHg 82%
    01:00 +1°C° 0 mm 4 m/s 734 mmHg 84%
    02:00 0°C° 0 mm 4 m/s 735 mmHg 85%
    03:00 +1°C° 0 mm 3 m/s 735 mmHg 85%
    04:00 0°C° 0 mm 3 m/s 736 mmHg 86%
    05:00 0°C° 0 mm 3 m/s 736 mmHg 85%
    06:00 0°C° 0 mm 3 m/s 737 mmHg 85%
    07:00 0°C° 0 mm 3 m/s 738 mmHg 84%
    08:00 0°C° 0 mm 3 m/s 739 mmHg 83%
    09:00 0°C° 0 mm 3 m/s 739 mmHg 82%
    10:00 0°C° 0 mm 3 m/s 740 mmHg 80%
    11:00 0°C° 0 mm 4 m/s 740 mmHg 78%
    12:00 0°C° 0 mm 4 m/s 740 mmHg 76%
    13:00 +1°C° 0 mm 4 m/s 741 mmHg 73%
    14:00 0°C° 0 mm 4 m/s 741 mmHg 75%
    15:00 0°C° 0 mm 4 m/s 741 mmHg 76%
    16:00 0°C° 0 mm 3 m/s 741 mmHg 78%
    17:00 0°C° 0 mm 3 m/s 742 mmHg 78%
    18:00 0°C° 0 mm 3 m/s 742 mmHg 79%
    19:00 -1°C° 0 mm 3 m/s 742 mmHg 79%
    20:00 -1°C° 0 mm 3 m/s 742 mmHg 79%
    21:00 -1°C° 0 mm 3 m/s 743 mmHg 79%
    22:00 -1°C° 0 mm 3 m/s 743 mmHg 80%
    23:00 -1°C° 0 mm 3 m/s 743 mmHg 81%

    Demain, 25 Novembre, Samedi

    Heure Température Précipitation Vent Pression Humidité
    00:00 -1°C° 0 mm 3 m/s 743 mmHg 81%
    01:00 -2°C° 0 mm 3 m/s 743 mmHg 82%
    02:00 -2°C° 0 mm 3 m/s 743 mmHg 83%
    03:00 -2°C° 0 mm 3 m/s 743 mmHg 85%
    04:00 -2°C° 0 mm 3 m/s 743 mmHg 86%
    05:00 -2°C° 0 mm 3 m/s 743 mmHg 86%
    06:00 -2°C° 0 mm 3 m/s 743 mmHg 87%
    07:00 -2°C° 0 mm 3 m/s 743 mmHg 87%
    08:00 -1°C° 0 mm 3 m/s 743 mmHg 85%
    09:00 -1°C° 0 mm 3 m/s 743 mmHg 84%
    10:00 -1°C° 0 mm 3 m/s 743 mmHg 82%
    11:00 0°C° 0 mm 3 m/s 742 mmHg 80%
    12:00 0°C° 0 mm 3 m/s 742 mmHg 78%
    13:00 +1°C° 0 mm 3 m/s 742 mmHg 76%
    14:00 +1°C° 0 mm 3 m/s 742 mmHg 78%
    15:00 0°C° 0 mm 3 m/s 742 mmHg 81%
    16:00 0°C° 0 mm 3 m/s 742 mmHg 83%
    17:00 0°C° 0 mm 3 m/s 742 mmHg 84%
    18:00 0°C° 0 mm 3 m/s 742 mmHg 85%
    19:00 0°C° 0 mm 3 m/s 741 mmHg 85%
    20:00 0°C° 0,1 mm 3 m/s 741 mmHg 85%
    21:00 0°C° 0,1 mm 3 m/s 741 mmHg 85%
    22:00 +1°C° 0,1 mm 3 m/s 741 mmHg 85%
    23:00 +1°C° 0,4 mm 3 m/s 740 mmHg 87%

    Après-demain, 26 Novembre, Dimanche

    Heure Température Précipitation Vent Pression Humidité
    00:00 +1°C° 0,4 mm 3 m/s 740 mmHg 89%
    01:00 +1°C° 0,4 mm 3 m/s 740 mmHg 90%
    02:00 +2°C° 0,1 mm 2 m/s 740 mmHg 92%
    03:00 +1°C° 0,1 mm 2 m/s 740 mmHg 93%
    04:00 +2°C° 0,1 mm 1 m/s 739 mmHg 95%
    05:00 +2°C° 0 mm 1 m/s 739 mmHg 95%
    06:00 +1°C° 0 mm 1 m/s 740 mmHg 95%
    07:00 +1°C° 0 mm 1 m/s 740 mmHg 96%
    08:00 +1°C° 0 mm 1 m/s 740 mmHg 95%
    09:00 +1°C° 0 mm 1 m/s 740 mmHg 94%
    10:00 -1°C° 0 mm 2 m/s 740 mmHg 93%
    11:00 +2°C° 0 mm 1 m/s 739 mmHg 92%
    12:00 +2°C° 0 mm 1 m/s 739 mmHg 91%
    13:00 +3°C° 0 mm 1 m/s 739 mmHg 90%
    14:00 +2°C° 0 mm 1 m/s 739 mmHg 91%
    15:00 +2°C° 0 mm 1 m/s 739 mmHg 93%
    16:00 +1°C° 0 mm 1 m/s 739 mmHg 94%
    17:00 +1°C° 0 mm 1 m/s 740 mmHg 94%
    18:00 +1°C° 0 mm 1 m/s 740 mmHg 94%
    19:00 0°C° 0 mm 1 m/s 740 mmHg 93%
    20:00 -2°C° 0 mm 2 m/s 741 mmHg 92%
    21:00 -2°C° 0 mm 2 m/s 741 mmHg 92%
    22:00 -3°C° 0 mm 2 m/s 742 mmHg 91%
    23:00 -3°C° 0 mm 2 m/s 743 mmHg 89%

    27 Novembre, Lundi

    Heure Température Précipitation Vent Pression Humidité
    00:00 -3°C° 0 mm 2 m/s 743 mmHg 88%
    01:00 -3°C° 0 mm 2 m/s 744 mmHg 86%
    02:00 -1°C° 0 mm 1 m/s 744 mmHg 86%
    03:00 -1°C° 0 mm 1 m/s 745 mmHg 86%
    04:00 -1°C° 0 mm 1 m/s 745 mmHg 86%
    05:00 -1°C° 0 mm 1 m/s 745 mmHg 85%
    06:00 -1°C° 0 mm 1 m/s 746 mmHg 85%
    07:00 -1°C° 0 mm 1 m/s 746 mmHg 85%
    08:00 -1°C° 0 mm 1 m/s 747 mmHg 84%
    09:00 -1°C° 0 mm 1 m/s 747 mmHg 84%
    10:00 -2°C° 0 mm 0 m/s 747 mmHg 83%
    11:00 -1°C° 0 mm 0 m/s 747 mmHg 82%
    12:00 -1°C° 0 mm 0 m/s 747 mmHg 81%
    13:00 0°C° 0 mm 0 m/s 747 mmHg 79%
    14:00 -1°C° 0 mm 0 m/s 747 mmHg 81%
    15:00 -2°C° 0 mm 0 m/s 748 mmHg 84%
    16:00 -2°C° 0 mm 0 m/s 748 mmHg 86%
    17:00 -3°C° 0 mm 0 m/s 748 mmHg 86%
    18:00 -2°C° 0 mm 1 m/s 748 mmHg 87%
    19:00 -2°C° 0 mm 1 m/s 748 mmHg 87%
    20:00 -2°C° 0 mm 1 m/s 748 mmHg 87%
    21:00 -2°C° 0 mm 1 m/s 748 mmHg 88%
    22:00 -2°C° 0 mm 1 m/s 748 mmHg 88%
    23:00 -2°C° 0 mm 1 m/s 748 mmHg 88%

    28 Novembre, Mardi

    Heure Température Précipitation Vent Pression Humidité
    00:00 -2°C° 0 mm 1 m/s 748 mmHg 89%
    01:00 -2°C° 0 mm 1 m/s 748 mmHg 89%
    02:00 -2°C° 0 mm 1 m/s 748 mmHg 89%
    03:00 -4°C° 0 mm 2 m/s 748 mmHg 88%
    04:00 -3°C° 0 mm 2 m/s 748 mmHg 88%
    05:00 -3°C° 0 mm 2 m/s 748 mmHg 88%
    06:00 -3°C° 0 mm 2 m/s 747 mmHg 89%
    07:00 -3°C° 0 mm 2 m/s 747 mmHg 89%
    08:00 -3°C° 0,1 mm 2 m/s 747 mmHg 89%
    09:00 -2°C° 0,1 mm 3 m/s 747 mmHg 89%
    10:00 -2°C° 0,1 mm 3 m/s 747 mmHg 90%
    11:00 -2°C° 0,7 mm 3 m/s 746 mmHg 90%
    12:00 -2°C° 0,7 mm 3 m/s 746 mmHg 91%
    13:00 -1°C° 0,7 mm 3 m/s 745 mmHg 92%
    14:00 -1°C° 0,8 mm 3 m/s 745 mmHg 92%
    15:00 -1°C° 0,8 mm 3 m/s 745 mmHg 93%
    16:00 -1°C° 0,8 mm 3 m/s 744 mmHg 93%
    17:00 -1°C° 0,8 mm 3 m/s 744 mmHg 93%
    18:00 -1°C° 0,8 mm 3 m/s 744 mmHg 93%
    19:00 -1°C° 0,8 mm 3 m/s 744 mmHg 93%
    20:00 -1°C° 1 mm 3 m/s 744 mmHg 93%
    21:00 -1°C° 1 mm 3 m/s 744 mmHg 94%
    22:00 -1°C° 1 mm 3 m/s 744 mmHg 94%
    23:00 -1°C° 0,6 mm 3 m/s 744 mmHg 95%

    29 Novembre, Mercredi

    Heure Température Précipitation Vent Pression Humidité
    00:00 -1°C° 0,6 mm 3 m/s 744 mmHg 95%
    01:00 -1°C° 0,6 mm 2 m/s 744 mmHg 95%
    02:00 -1°C° 0,4 mm 2 m/s 744 mmHg 95%
    03:00 -1°C° 0,4 mm 2 m/s 744 mmHg 96%
    04:00 +1°C° 0,4 mm 2 m/s 744 mmHg 96%
    05:00 -1°C° 0,4 mm 2 m/s 744 mmHg 96%
    06:00 -1°C° 0,4 mm 2 m/s 744 mmHg 96%
    07:00 -1°C° 0,4 mm 2 m/s 744 mmHg 96%
    08:00 +1°C° 0,4 mm 2 m/s 744 mmHg 96%
    09:00 +1°C° 0,4 mm 2 m/s 744 mmHg 95%
    10:00 +1°C° 0,4 mm 2 m/s 744 mmHg 95%
    11:00 +1°C° 0,3 mm 2 m/s 744 mmHg 95%
    12:00 +1°C° 0,3 mm 2 m/s 743 mmHg 94%
    13:00 +1°C° 0,3 mm 2 m/s 743 mmHg 94%
    14:00 +1°C° 0,3 mm 2 m/s 743 mmHg 94%
    15:00 +1°C° 0,3 mm 2 m/s 743 mmHg 95%
    16:00 +1°C° 0,3 mm 2 m/s 743 mmHg 95%
    17:00 +1°C° 0,3 mm 2 m/s 743 mmHg 95%
    18:00 +1°C° 0,3 mm 2 m/s 743 mmHg 95%
    19:00 +1°C° 0,3 mm 2 m/s 743 mmHg 95%
    20:00 +1°C° 0,3 mm 2 m/s 743 mmHg 95%
    21:00 +1°C° 0,3 mm 2 m/s 743 mmHg 95%
    22:00 +1°C° 0,3 mm 2 m/s 743 mmHg 95%
    23:00 +1°C° 0,3 mm 2 m/s 743 mmHg 95%
    Voir plus